Date String (YYYY-MM-DD hh:mm:ss) UTC,Instrument flags,Ambient pressure (hPa),Sample flow (lpm),Bypass flow (lpm),Sample temperature (°C),Ambient temperature (°C),ASC tube jacket temperature (°C),LED temperature (°C),Box temperature (°C),Sample RH (%),Span deviation,Mass concentration (μg/m³),Mass concentration (μg/m³),Mass concentration (μg/m³)
DateTimeUTC,F1_M11,P_M11,Q1_M11,Q2_M11,T1_M11,T2_M11,T3_M11,T4_M11,T5_M11,U1_M11,ZSPAN_M11,X0_M11,X2_M11,X1_M11
2022-07-27 08:00:00,,0829.1,5.00,0.00,31.6,27.7,00.0,39.7,32.3,34.5,0001.7,0013.07,0007.87,0006.90
2022-07-27 08:01:00,,0829.1,5.00,0.00,31.7,27.8,00.0,39.7,32.3,34.3,0001.3,0013.53,0007.92,0006.93
2022-07-27 08:02:00,,0829.1,4.99,0.00,31.8,28.0,00.0,39.7,32.3,34.2,0001.4,0013.36,0007.89,0006.92
2022-07-27 08:03:00,,0829.0,5.01,0.00,31.8,28.2,00.0,39.7,32.3,34.2,0001.4,0012.87,0007.79,0006.86
2022-07-27 08:04:00,,0829.0,4.99,0.00,31.8,28.3,00.0,39.8,32.3,34.3,0001.2,0012.77,0007.74,0006.81
2022-07-27 08:05:00,,0829.0,5.00,0.00,31.7,28.4,00.0,39.8,32.3,34.3,0000.4,0012.63,0007.72,0006.77
2022-07-27 08:06:00,,0829.0,5.00,0.00,31.7,28.5,00.0,39.8,32.3,34.3,0000.0,0012.74,0007.67,0006.75
2022-07-27 08:07:00,,0829.0,5.01,0.00,31.7,28.6,00.0,39.8,32.3,34.5,0000.0,0012.82,0007.69,0006.76
2022-07-27 08:08:00,,0829.0,5.01,0.00,31.6,28.7,00.0,39.9,32.3,34.6,0000.0,0012.85,0007.68,0006.74
2022-07-27 08:09:00,,0828.9,5.00,0.00,31.6,28.8,00.0,39.9,32.4,34.8,0000.0,0012.91,0007.72,0006.73
2022-07-27 08:10:00,,0828.9,4.99,0.00,31.6,28.9,00.0,39.9,32.4,34.8,0000.0,0012.92,0007.71,0006.73
2022-07-27 08:11:00,,0829.0,5.02,0.00,31.5,28.9,00.0,39.9,32.4,34.8,0000.0,0012.61,0007.73,0006.78
2022-07-27 08:12:00,,0829.0,5.00,0.00,31.5,29.0,00.0,39.9,32.4,34.9,0000.0,0012.15,0007.75,0006.81
2022-07-27 08:13:00,,0829.0,4.99,0.00,31.5,29.0,00.0,39.9,32.5,35.0,0000.0,0012.04,0007.79,0006.84
2022-07-27 08:14:00,,0828.9,5.00,0.00,31.5,29.1,00.0,39.9,32.5,35.0,0000.0,0012.38,0007.89,0006.89
2022-07-27 08:15:00,,0828.9,4.99,0.00,31.5,29.1,00.0,39.9,32.5,35.1,0000.0,0012.46,0007.94,0006.93
2022-07-27 08:16:00,,0828.9,5.01,0.00,31.7,29.2,00.0,39.9,32.7,34.8,0000.0,0012.42,0007.96,0006.95
2022-07-27 08:17:00,,0828.9,5.00,0.00,31.8,29.2,00.0,39.9,32.7,34.4,0000.0,0012.26,0007.91,0006.92
2022-07-27 08:18:00,,0828.9,4.99,0.00,31.9,29.2,00.0,39.9,32.7,34.4,0000.0,0012.07,0007.81,0006.86
2022-07-27 08:19:00,,0828.9,5.01,0.00,31.9,29.1,00.0,40.0,32.7,34.3,0000.0,0011.88,0007.72,0006.81
2022-07-27 08:20:00,,0828.8,4.99,0.00,31.9,28.4,00.0,39.9,32.6,34.3,0000.0,0012.15,0007.70,0006.79
2022-07-27 08:21:00,,0828.8,4.99,0.00,31.8,27.8,00.0,39.9,32.5,34.5,0000.0,0012.02,0007.65,0006.76
2022-07-27 08:22:00,,0829.1,5.01,0.00,31.7,27.7,00.0,39.9,32.3,34.8,0000.0,0011.76,0007.60,0006.70
2022-07-27 08:23:00,,0829.3,4.98,0.00,31.6,27.8,00.0,39.9,32.2,35.0,0000.0,0012.06,0007.56,0006.64
2022-07-27 08:24:00,,0828.8,5.01,0.00,31.6,27.9,00.0,39.9,32.2,35.0,0000.0,0012.40,0007.50,0006.58
2022-07-27 08:25:00,,0829.2,4.98,0.00,31.7,28.0,00.0,39.9,32.3,34.8,0000.0,0012.27,0007.37,0006.51
2022-07-27 08:26:00,,0829.3,5.01,0.00,31.7,28.2,00.0,39.9,32.3,34.6,0000.0,0012.30,0007.31,0006.44
2022-07-27 08:27:00,,0829.3,4.98,0.00,31.7,28.3,00.0,39.9,32.3,34.7,0000.0,0012.28,0007.27,0006.39
2022-07-27 08:28:00,,0829.3,5.00,0.00,31.7,28.4,00.0,39.9,32.3,34.7,0000.0,0012.26,0007.25,0006.37
2022-07-27 08:29:00,,0829.3,5.01,0.00,31.6,28.6,00.0,39.9,32.3,34.8,0000.0,0012.73,0007.28,0006.36
2022-07-27 08:30:00,,0829.2,4.99,0.00,31.6,28.6,00.0,39.9,32.3,34.8,0000.0,0013.16,0007.32,0006.34
2022-07-27 08:31:00,,0829.1,4.99,0.00,31.6,28.7,00.0,39.9,32.4,34.9,0000.0,0012.84,0007.26,0006.32
2022-07-27 08:32:00,,0828.6,5.01,0.00,31.6,28.8,00.0,39.9,32.4,35.0,0000.0,0013.01,0007.29,0006.32
2022-07-27 08:33:00,,0828.8,5.00,0.00,31.8,28.9,00.0,39.9,32.5,34.7,0000.0,0013.08,0007.31,0006.33
2022-07-27 08:34:00,,0828.7,5.00,0.00,31.9,28.9,00.0,39.9,32.6,34.5,0000.0,0013.02,0007.32,0006.33
2022-07-27 08:35:00,,0828.7,4.99,0.00,31.9,29.0,00.0,39.9,32.6,34.4,0000.0,0012.78,0007.32,0006.34
2022-07-27 08:36:00,,0828.7,5.01,0.00,31.9,29.0,00.0,40.0,32.6,34.4,0000.0,0012.99,0007.34,0006.37
2022-07-27 08:37:00,,0828.7,5.00,0.00,31.9,29.1,00.0,40.0,32.6,34.5,0000.0,0013.38,0007.38,0006.39
2022-07-27 08:38:00,,0828.8,5.00,0.00,31.9,29.1,00.0,40.0,32.6,34.5,0000.0,0013.58,0007.42,0006.42
2022-07-27 08:39:00,,0829.2,4.99,0.00,31.8,29.1,00.0,40.0,32.6,34.4,0000.0,0013.59,0007.48,0006.46
2022-07-27 08:40:00,,0829.2,5.01,0.00,31.8,28.5,00.0,40.0,32.5,34.5,0000.0,0013.37,0007.55,0006.51
2022-07-27 08:41:00,,0828.7,5.00,0.00,31.7,27.9,00.0,39.9,32.4,34.7,0000.0,0012.95,0007.53,0006.56
2022-07-27 08:42:00,,0828.8,5.00,0.00,31.6,27.7,00.0,39.9,32.2,35.0,0000.0,0013.19,0007.58,0006.61
2022-07-27 08:43:00,,0829.0,5.00,0.00,31.6,27.7,00.0,39.9,32.2,35.1,0000.0,0014.00,0007.59,0006.65
2022-07-27 08:44:00,,0828.8,5.00,0.00,31.7,27.8,00.0,39.9,32.3,34.8,0000.0,0015.14,0007.59,0006.68
2022-07-27 08:45:00,,0828.7,4.99,0.00,31.7,28.0,00.0,39.9,32.3,34.5,0000.0,0015.62,0007.62,0006.71
2022-07-27 08:46:00,,0829.0,5.01,0.00,31.7,28.1,00.0,39.9,32.3,34.6,0000.0,0015.45,0007.67,0006.73
2022-07-27 08:47:00,,0828.9,5.00,0.00,31.7,28.2,00.0,39.9,32.3,34.6,0000.0,0015.60,0007.75,0006.79
2022-07-27 08:48:00,,0829.0,5.00,0.00,31.7,28.4,00.0,39.9,32.3,34.6,0000.0,0015.16,0007.77,0006.85
2022-07-27 08:49:00,,0828.9,4.99,0.00,31.7,28.5,00.0,39.9,32.3,34.7,0000.0,0015.16,0007.79,0006.91
2022-07-27 08:50:00,,0829.1,5.01,0.00,31.6,28.6,00.0,39.9,32.3,34.8,0000.0,0015.56,0007.85,0006.96
2022-07-27 08:51:00,,0829.0,5.00,0.00,31.6,28.7,00.0,39.9,32.3,34.9,0000.0,0015.54,0007.85,0006.98
2022-07-27 08:52:00,,0828.9,4.99,0.00,31.6,28.7,00.0,39.9,32.4,35.1,0000.0,0015.63,0007.89,0007.00
2022-07-27 08:53:00,,0828.8,5.00,0.00,31.7,28.8,00.0,39.9,32.5,34.9,0000.3,0015.54,0007.91,0007.01
2022-07-27 08:54:00,,0829.0,4.99,0.00,31.9,28.9,00.0,39.9,32.6,34.5,0000.0,0014.55,0007.87,0007.00
2022-07-27 08:55:00,,0829.1,4.99,0.00,31.9,28.9,00.0,39.9,32.6,34.3,0000.0,0013.89,0007.88,0007.01
2022-07-27 08:56:00,,0829.0,5.01,0.00,32.0,29.0,00.0,40.0,32.6,34.3,0000.0,0013.11,0007.90,0007.03
2022-07-27 08:57:00,,0828.8,5.00,0.00,32.0,29.0,00.0,40.0,32.6,34.3,0000.0,0013.29,0007.93,0007.06
2022-07-27 08:58:00,,0828.8,4.99,0.00,32.0,29.1,00.0,40.0,32.6,34.4,0000.0,0014.94,0007.98,0007.09
2022-07-27 08:59:00,,0828.8,5.01,0.00,31.9,29.1,00.0,40.0,32.6,34.5,0000.0,0014.97,0008.01,0007.09
